User: anonymous   Login
Location: Caltech
(34.1382°N, 118.1253°W)
Time: 17:59:56
(UTC-07:00)
Language:

Cosmos 1833 Rocket - Orbit

View from above orbital plane
View from above orbital plane
View from above satellite
View from above satellite

Ground track
Ground track

The orbit data is extracted from the following two-line orbital elements,

1 17590U 87027B   16205.81378387  .00000148  00000-0  97819-4 0  9996
2 17590  71.0036 121.4380 0002923  80.2042 279.9412 14.16726675517611
Epoch (UTC): 23 July 2016 19:31:50
Eccentricity: 0.0002923
inclination: 71.0036°
perigee height: 834 km
apogee height: 838 km
right ascension of ascending node: 121.4380°
argument of perigee: 80.2042°
revolutions per day: 14.16726675
mean anomaly at epoch: 279.9412°
orbit number at epoch: 51761

The dashed part of the orbit path shows where the satellite is in the earth's shadow,  

DLR